This is the latest recevied weather packets stored in our database for station/object IZ8QAD-10. If no packets are shown the sender has not sent any weather packets the latest 10 day(s).
| Time | Temp. | Humidity | Pressure | Rain* | Wind** | Luminosity | Snow |
|---|---|---|---|---|---|---|---|
| 1777717334 | 23.89° C | 28% | 974.6 hPa | - | - | - | - |
| 1777715534 | 23.33° C | 29% | 974.7 hPa | - | - | - | - |
| 1777713733 | 23.33° C | 32% | 974.5 hPa | - | - | - | - |
| 1777711933 | 23.33° C | 32% | 974.9 hPa | - | - | - | - |
| 1777710133 | 23.33° C | 32% | 974.9 hPa | - | - | - | - |
| 1777708333 | 22.78° C | 32% | 975.3 hPa | - | - | - | - |
| 1777706533 | 23.33° C | 31% | 975.2 hPa | - | - | - | - |
| 1777704733 | 23.33° C | 30% | 975.2 hPa | - | - | - | - |
| 1777702932 | 23.33° C | 30% | 975.1 hPa | - | - | - | - |
| 1777701132 | 23.33° C | 30% | 975 hPa | - | - | - | - |
| 1777699332 | 23.33° C | 30% | 974.8 hPa | - | - | - | - |
| 1777697532 | 23.33° C | 30% | 974.9 hPa | - | - | - | - |
| 1777695732 | 23.33° C | 30% | 974.6 hPa | - | - | - | - |
| 1777693932 | 23.33° C | 30% | 974.4 hPa | - | - | - | - |
| 1777692131 | 23.89° C | 29% | 974.1 hPa | - | - | - | - |
| 1777690331 | 23.89° C | 28% | 974.2 hPa | - | - | - | - |
| 1777688531 | 23.89° C | 28% | 974.4 hPa | - | - | - | - |
| 1777686731 | 23.89° C | 27% | 974.4 hPa | - | - | - | - |
| 1777684931 | 24.44° C | 27% | 974.4 hPa | - | - | - | - |
| 1777683131 | 24.44° C | 27% | 974.5 hPa | - | - | - | - |
| 1777681330 | 24.44° C | 26% | 974.9 hPa | - | - | - | - |
| 1777679530 | 24.44° C | 26% | 974.8 hPa | - | - | - | - |
| 1777677730 | 24.44° C | 26% | 974.7 hPa | - | - | - | - |
| 1777675930 | 25° C | 24% | 974.9 hPa | - | - | - | - |
| 1777674131 | 25° C | 25% | 974.8 hPa | - | - | - | - |
* Rain since midnight (hover to see other rain measurements)
** Current wind speed in m/s (hover to see current wind gust speed)